Content
SEND FEEDBACK

Daily
Averages
Monthly
Summary
United States of America

CAIRO, WEST VIRGINIA


Home > North America > United States > West Virginia
Elevation: 855 feet     Latitude: 39 24N     Longitude: 081 36W

WEATHER
 
SELECT A DAY
Number of Records: 197,169;   Date Range: 1/1/95 - 7/20/14
 
SHARE

PRINT THIS DATA

[ ← Previous Day ]
WEATHER ALMANAC - JANUARY 3, 2013
[ Next Day → ]
[ °C ]   °F
Weather ElementAverageHighLow
Temperature30.8 °F39 °F (2:54 pm)21.9 °F (7:54 am)
Dewpoint20.6 °F25 °F (10:54 am)18 °F (11:54 pm)
Humidity68.1 %89 % (7:54 am)46 % (3:54 pm)
Barometer30.26 in30.33 in (10:54 pm)30.21 in (2:54 pm)
Wind Speed3.5 mph8.1 mph (1:54 pm)
Weather ElementAverage
Visibility10 mi
Wind DirectionSE (129.6 °)

Weather ElementTotal
Precipitation---
Heating Degree Days34.6 (Base 65)
Averaged from 23 records on January 3, 2013
WEATHER CONDITIONS BREAKOUT
WIND DIRECTION BREAKOUT
WEATHER BY HOUR - JANUARY 3, 2013
[ °C ]   °F
Local TimeTemperatureDewpointHumidityBarometerVisibilityWind DirectionWind SpeedGust SpeedPrecipitationEventsConditions
1:54 AM26.1 °F21.9 °F84 %30.22 in9.0 miCalmClear
2:54 AM26.1 °F21.9 °F84 %30.22 in10.0 miCalmClear
3:54 AM26.1 °F21.9 °F84 %30.22 in10.0 miCalmClear
4:54 AM24.1 °F21.0 °F88 %30.23 in10.0 miCalmClear
5:54 AM24.1 °F21.0 °F88 %30.23 in10.0 miCalmClear
6:54 AM23.0 °F19.0 °F85 %30.25 in10.0 miCalmClear
7:54 AM21.9 °F19.0 °F89 %30.27 in10.0 miCalmClear
8:54 AM24.1 °F21.0 °F88 %30.27 in10.0 miCalmClear
9:54 AM26.1 °F23.0 °F88 %30.29 in10.0 miCalmClear
10:54 AM30.0 °F25.0 °F82 %30.28 in10.0 miSW (220°)3.5 mphClear
11:54 AM33.1 °F21.0 °F61 %30.27 in10.0 miSW (230°)5.8 mphClear
12:54 PM36.0 °F21.9 °F57 %30.23 in10.0 miSW (220°)6.9 mphClear
1:54 PM37.9 °F21.0 °F51 %30.22 in10.0 miSW (230°)8.1 mphClear
2:54 PM39.0 °F21.9 °F50 %30.21 in10.0 miVariable3.5 mphClear
3:54 PM39.0 °F19.9 °F46 %30.23 in10.0 miVariable6.9 mphClear
4:54 PM37.9 °F19.0 °F47 %30.25 in10.0 miWest (260°)8.1 mphClear
5:54 PM37.0 °F19.0 °F48 %30.26 in10.0 miWest (260°)5.8 mphClear
6:54 PM35.1 °F19.0 °F52 %30.27 in10.0 miWSW (240°)5.8 mphClear
7:54 PM34.0 °F19.9 °F56 %30.29 in10.0 miSW (230°)5.8 mphClear
8:54 PM33.1 °F19.0 °F56 %30.30 in10.0 miWSW (250°)5.8 mphClear
9:54 PM30.9 °F19.9 °F64 %30.32 in10.0 miWest (260°)4.6 mphMostly Cloudy
10:54 PM32.0 °F19.0 °F59 %30.33 in10.0 miWNW (300°)5.8 mphMostly Cloudy
11:54 PM30.9 °F18.0 °F59 %30.33 in10.0 miWest (280°)4.6 mphClear
Hourly data recorded from KCRW, located miles away from Cairo, West Virginia







STORIES FROM OUR PARTNERS